FW6471 Weather Reports


Display with metric or nautical units.
time (UTC)temp
F
wind
direction
speed
MPH
gust
MPH
rain 1hr
in
rain 24hr
in
rain mn
in
humidity
%
barometer
mb
20260508145615 85 293 1.0 3.0 0.00 0.00 0.00 74 1017.3
20260508145114 85 334 2.0 5.0 0.00 0.00 0.00 74 1017.2
20260508144615 84 311 5.0 7.0 0.00 0.00 0.00 74 1017.2
20260508144115 84 310 2.0 3.0 0.00 0.00 0.00 75 1017.2
20260508143615 84 298 1.0 5.0 0.00 0.00 0.00 77 1017.3
20260508142614 83 328 2.0 6.0 0.00 0.00 0.00 77 1017.3
20260508142115 83 186 1.0 3.0 0.00 0.00 0.00 78 1017.3
20260508141615 82 308 1.0 5.0 0.00 0.00 0.00 80 1017.2
20260508141115 81 289 1.0 3.0 0.00 0.00 0.00 82 1017.2
20260508140615 81 325 2.0 5.0 0.00 0.00 0.00 81 1017.2
20260508140121 81 289 1.0 2.0 0.00 0.00 0.00 82 1017.2
20260508135615 81 306 1.0 3.0 0.00 0.00 0.00 82 1017.3
20260508134614 80 334 2.0 5.0 0.00 0.00 0.00 84 1017.3
20260508133614 80 339 1.0 3.0 0.00 0.00 0.00 85 1017.4
20260508133115 80 316 4.0 7.0 0.00 0.00 0.00 86 1017.4
20260508132615 79 313 2.0 7.0 0.00 0.00 0.00 88 1017.4
20260508132114 78 329 2.0 3.0 0.00 0.00 0.00 89 1017.4
20260508131614 78 328 1.0 3.0 0.00 0.00 0.00 90 1017.3
20260508131115 77 334 1.0 3.0 0.00 0.00 0.00 90 1017.2
20260508130614 77 337 2.0 3.0 0.00 0.00 0.00 91 1017.2
20260508130120 76 152 1.0 3.0 0.00 0.00 0.00 92 1017.2
20260508125115 75 304 1.0 3.0 0.00 0.00 0.00 94 1017.3
20260508124615 75 324 2.0 3.0 0.00 0.00 0.00 94 1017.3
20260508124114 74 324 0.0 2.0 0.00 0.00 0.00 95 1017.3
20260508123615 73 324 0.0 1.0 0.00 0.00 0.00 95 1017.3
20260508123115 73 323 0.0 0.0 0.00 0.00 0.00 95 1017.2
20260508122615 72 323 0.0 1.0 0.00 0.00 0.00 95 1017.1
20260508121614 71 323 0.0 1.0 0.00 0.00 0.00 95 1017.0
20260508121115 71 323 0.0 1.0 0.00 0.00 0.00 95 1016.9
20260508120614 70 324 0.0 1.0 0.00 0.00 0.00 95 1016.8
20260508115115 69 324 0.0 1.0 0.00 0.00 0.00 94 1016.7
20260508114614 69 324 0.0 1.0 0.00 0.00 0.00 94 1016.6
20260508113614 69 324 0.0 0.0 0.00 0.00 0.00 94 1016.4
20260508113114 68 324 0.0 1.0 0.00 0.00 0.00 94 1016.3
20260508112615 68 324 0.0 2.0 0.00 0.00 0.00 94 1016.3
20260508112115 68 324 0.0 0.0 0.00 0.00 0.00 94 1016.2
20260508111614 68 324 0.0 0.0 0.00 0.00 0.00 94 1016.1
20260508110615 68 324 0.0 0.0 0.00 0.00 0.00 94 1016.0
20260508110121 68 324 0.0 0.0 0.00 0.00 0.00 94 1015.9
20260508105614 68 324 0.0 0.0 0.00 0.00 0.00 94 1015.8
20260508105115 68 324 0.0 0.0 0.00 0.00 0.00 93 1015.8
20260508104615 68 324 0.0 0.0 0.00 0.00 0.00 93 1015.8
20260508103614 68 324 0.0 0.0 0.00 0.00 0.00 94 1015.6
20260508103114 68 324 0.0 0.0 0.00 0.00 0.00 94 1015.5
20260508102614 68 324 0.0 0.0 0.00 0.00 0.00 94 1015.5
20260508102115 68 324 0.0 0.0 0.00 0.00 0.00 94 1015.3
20260508101615 68 324 0.0 0.0 0.00 0.00 0.00 94 1015.4
20260508101114 67 324 0.0 0.0 0.00 0.00 0.00 93 1015.4
20260508100615 68 324 0.0 0.0 0.00 0.00 0.00 93 1015.3
20260508100121 67 324 0.0 0.0 0.00 0.00 0.00 93 1015.2
20260508095614 67 324 0.0 0.0 0.00 0.00 0.00 93 1015.2
20260508094615 68 324 0.0 0.0 0.00 0.00 0.00 93 1015.2
20260508093614 68 324 0.0 0.0 0.00 0.00 0.00 93 1015.1
20260508093115 68 324 0.0 0.0 0.00 0.00 0.00 93 1015.1
20260508092615 68 324 0.0 0.0 0.00 0.00 0.00 93 1015.0
20260508091614 69 324 0.0 0.0 0.00 0.00 0.00 93 1015.0
20260508091114 68 324 0.0 0.0 0.00 0.00 0.00 93 1015.0
20260508090614 68 324 0.0 0.0 0.00 0.00 0.00 93 1014.9
20260508090121 68 324 0.0 0.0 0.00 0.00 0.00 93 1014.9
20260508085115 69 324 0.0 0.0 0.00 0.00 0.00 93 1014.9
20260508084615 69 324 0.0 0.0 0.00 0.00 0.00 93 1014.8
20260508083615 69 324 0.0 0.0 0.00 0.00 0.00 93 1014.8
20260508082614 69 324 0.0 0.0 0.00 0.00 0.00 93 1014.8
20260508082114 69 324 0.0 0.0 0.00 0.00 0.00 93 1014.9
20260508081614 69 324 0.0 0.0 0.00 0.00 0.00 93 1014.8
20260508081114 70 324 0.0 0.0 0.00 0.00 0.00 93 1014.9
20260508080614 70 324 0.0 0.0 0.00 0.00 0.00 93 1014.9
20260508080120 70 324 0.0 0.0 0.00 0.00 0.00 93 1014.9
20260508075614 70 324 0.0 0.0 0.00 0.00 0.00 93 1014.9
20260508075114 70 324 0.0 0.0 0.00 0.00 0.00 93 1014.9
20260508074114 70 324 0.0 1.0 0.00 0.00 0.00 93 1014.9
20260508073614 70 324 0.0 0.0 0.00 0.00 0.00 93 1015.0
20260508073115 70 324 0.0 1.0 0.00 0.00 0.00 93 1014.9
20260508072614 70 324 0.0 0.0 0.00 0.00 0.00 93 1015.0
20260508071614 70 324 0.0 0.0 0.00 0.00 0.00 93 1015.1
20260508070614 69 324 0.0 0.0 0.00 0.00 0.00 93 1015.2
20260508065114 70 324 0.0 0.0 0.00 0.00 0.00 92 1015.3
20260508063614 70 324 0.0 0.0 0.00 0.00 0.00 92 1015.3
20260508063114 70 324 0.0 0.0 0.00 0.00 0.00 92 1015.4
20260508062114 70 324 0.0 0.0 0.00 0.00 0.00 92 1015.5
20260508061614 70 324 0.0 0.0 0.00 0.00 0.00 92 1015.5
20260508061114 71 324 0.0 0.0 0.00 0.00 0.00 92 1015.6
20260508060614 71 324 0.0 0.0 0.00 0.00 0.00 92 1015.6
20260508060120 71 324 0.0 0.0 0.00 0.00 0.00 92 1015.7
20260508055615 71 324 0.0 0.0 0.00 0.00 0.00 92 1015.7
20260508055114 71 324 0.0 0.0 0.00 0.00 0.00 92 1015.7
20260508054614 71 324 0.0 0.0 0.00 0.00 0.00 92 1015.7
20260508054114 71 324 0.0 0.0 0.00 0.00 0.00 92 1015.7
20260508053614 71 324 0.0 1.0 0.00 0.00 0.00 92 1015.8
20260508053113 71 324 0.0 0.0 0.00 0.00 0.00 92 1015.8
20260508052614 71 324 0.0 0.0 0.00 0.00 0.00 91 1015.9
20260508052115 71 324 0.0 0.0 0.00 0.00 0.00 91 1015.8
20260508051614 71 324 0.0 0.0 0.00 0.00 0.00 91 1015.9
20260508051114 71 324 0.0 0.0 0.00 0.00 0.00 91 1015.9
20260508050615 71 323 0.0 13.0 0.00 0.00 0.00 91 1016.0
20260508050120 71 323 0.0 0.0 0.00 0.00 0.00 90 1016.0
20260508045614 71 324 0.0 0.0 0.00 0.00 0.00 91 1016.0
20260508045114 71 324 0.0 0.0 0.00 0.00 0.00 91 1016.2
20260508044614 71 324 0.0 0.0 0.00 0.00 0.00 91 1016.1
20260508044114 72 324 0.0 0.0 0.00 0.00 0.00 91 1016.1
20260508043114 72 324 0.0 0.0 0.00 0.00 0.00 90 1016.1
20260508042114 72 324 0.0 0.0 0.00 0.00 0.00 90 1016.0
20260508041614 72 324 0.0 0.0 0.00 0.00 0.00 90 1016.0
20260508041114 72 324 0.0 1.0 0.00 0.00 0.00 90 1016.1
20260508040614 72 323 0.0 1.0 0.00 0.00 0.00 90 1016.1
20260508040121 72 324 0.0 0.0 0.00 0.00 0.00 89 1016.1
20260508035614 72 324 0.0 0.0 0.00 0.00 0.00 89 1016.1
20260508035114 72 323 0.0 0.0 0.00 0.00 0.00 89 1016.2
20260508034614 72 324 0.0 0.0 0.00 0.00 0.00 88 1016.3
20260508034114 73 324 0.0 0.0 0.00 0.00 0.00 88 1016.3
20260508033614 73 324 0.0 0.0 0.00 0.00 0.00 88 1016.2
20260508033114 73 324 0.0 0.0 0.00 0.00 0.00 87 1016.2
20260508032614 73 324 0.0 0.0 0.00 0.00 0.00 88 1016.1
20260508031613 73 323 0.0 0.0 0.00 0.00 0.00 87 1016.1
20260508031114 74 323 0.0 0.0 0.00 0.00 0.00 87 1016.0
20260508030120 74 324 0.0 0.0 0.00 0.00 0.00 86 1016.0
20260508025614 74 323 0.0 2.0 0.00 0.00 0.00 86 1016.0
20260508025113 74 324 1.0 2.0 0.00 0.00 0.00 86 1015.9
20260508024114 74 324 0.0 0.0 0.00 0.00 0.00 85 1015.9
20260508023614 74 323 0.0 0.0 0.00 0.00 0.00 84 1015.9
20260508022614 75 323 0.0 0.0 0.00 0.00 0.00 84 1015.9
20260508022113 75 324 0.0 0.0 0.00 0.00 0.00 83 1015.9
20260508021614 75 323 0.0 0.0 0.00 0.00 0.00 83 1015.9
20260508020614 75 324 0.0 0.0 0.00 0.00 0.00 82 1015.9
20260508020120 76 323 0.0 0.0 0.00 0.00 0.00 81 1015.9
20260508015614 76 324 0.0 0.0 0.00 0.00 0.00 80 1015.9
20260508015113 76 323 0.0 0.0 0.00 0.00 0.00 80 1015.7
20260508014613 76 323 0.0 0.0 0.00 0.00 0.00 79 1015.8
20260508014114 77 324 0.0 0.0 0.00 0.00 0.00 78 1015.8
20260508013614 77 323 0.0 0.0 0.00 0.00 0.00 78 1015.8
20260508013114 77 323 0.0 0.0 0.00 0.00 0.00 77 1015.7
20260508012614 77 323 0.0 2.0 0.00 0.00 0.00 77 1015.7
20260508012113 78 323 1.0 2.0 0.00 0.00 0.00 76 1015.7
20260508011614 78 324 1.0 2.0 0.00 0.00 0.00 75 1015.6
20260508011114 78 323 1.0 3.0 0.00 0.00 0.00 75 1015.5
20260508010614 78 322 0.0 3.0 0.00 0.00 0.00 73 1015.4
20260508010120 78 315 1.0 3.0 0.00 0.00 0.00 73 1015.5
20260508005614 79 315 1.0 2.0 0.00 0.00 0.00 72 1015.4
20260508005113 79 315 0.0 3.0 0.00 0.00 0.00 72 1015.4
20260508004614 79 315 1.0 2.0 0.00 0.00 0.00 71 1015.4
20260508004113 80 315 0.0 3.0 0.00 0.00 0.00 70 1015.3
20260508003613 80 314 1.0 2.0 0.00 0.00 0.00 69 1015.3
20260508003113 80 314 0.0 2.0 0.00 0.00 0.00 69 1015.3
20260508002614 81 314 1.0 5.0 0.00 0.00 0.00 67 1015.3
20260508002113 81 312 0.0 1.0 0.00 0.00 0.00 67 1015.3
20260508001613 81 312 0.0 3.0 0.00 0.00 0.00 65 1015.3
20260508001113 82 317 0.0 2.0 0.00 0.00 0.00 64 1015.2
20260508000613 82 317 0.0 2.0 0.00 0.00 0.00 63 1015.2
20260508000120 83 308 0.0 2.0 0.00 0.00 0.00 61 1015.2
20260507235614 83 307 0.0 2.0 0.00 0.00 0.00 61 1015.2
20260507235113 83 307 1.0 3.0 0.00 0.00 0.00 60 1015.2
20260507234614 84 323 1.0 5.0 0.00 0.00 0.00 59 1015.1
20260507234114 84 298 1.0 5.0 0.00 0.00 0.00 58 1015.1
20260507233614 84 326 1.0 5.0 0.00 0.00 0.00 56 1015.1
20260507233113 85 304 2.0 7.0 0.00 0.00 0.00 55 1015.0
20260507232613 85 320 1.0 6.0 0.00 0.00 0.00 53 1015.0
20260507232113 85 308 1.0 5.0 0.00 0.00 0.00 52 1015.0
20260507231614 86 302 2.0 3.0 0.00 0.00 0.00 51 1015.0
20260507231114 86 318 1.0 3.0 0.00 0.00 0.00 50 1015.0
20260507230613 86 323 3.0 3.0 0.00 0.00 0.00 48 1015.0
20260507230119 86 297 1.0 7.0 0.00 0.00 0.00 47 1015.0
20260507225614 87 319 4.0 12.0 0.00 0.00 0.00 46 1015.0
20260507225114 87 312 4.0 9.0 0.00 0.00 0.00 45 1015.0
20260507224113 87 309 2.0 8.0 0.00 0.00 0.00 43 1014.9
20260507223613 88 325 4.0 9.0 0.00 0.00 0.00 41 1014.9
20260507222613 89 311 4.0 9.0 0.00 0.00 0.00 38 1014.8
20260507222113 89 324 2.0 5.0 0.00 0.00 0.00 37 1014.8
20260507221613 89 320 3.0 8.0 0.00 0.00 0.00 36 1014.7
20260507221114 89 315 3.0 6.0 0.00 0.00 0.00 36 1014.7
20260507220614 89 306 2.0 7.0 0.00 0.00 0.00 35 1014.7
20260507220120 90 312 3.0 5.0 0.00 0.00 0.00 34 1014.7
20260507215614 90 314 1.0 5.0 0.00 0.00 0.00 33 1014.7
20260507215113 90 321 2.0 10.0 0.00 0.00 0.00 32 1014.7
20260507214613 90 308 2.0 6.0 0.00 0.00 0.00 33 1014.8
20260507214114 90 314 3.0 6.0 0.00 0.00 0.00 32 1014.8
20260507213613 90 303 3.0 7.0 0.00 0.00 0.00 33 1014.7
20260507212114 91 306 3.0 6.0 0.00 0.00 0.00 28 1014.8
20260507211614 91 303 2.0 7.0 0.00 0.00 0.00 30 1014.8
20260507211114 91 305 3.0 5.0 0.00 0.00 0.00 30 1014.8
20260507210614 92 321 3.0 7.0 0.00 0.00 0.00 31 1014.8
20260507210120 92 296 3.0 8.0 0.00 0.00 0.00 31 1014.8
20260507205113 92 320 4.0 8.0 0.00 0.00 0.00 30 1014.8
20260507204613 93 315 2.0 6.0 0.00 0.00 0.00 30 1014.9
20260507204113 93 20 2.0 6.0 0.00 0.00 0.00 28 1014.9
20260507203614 93 301 2.0 7.0 0.00 0.00 0.00 28 1014.8
20260507203113 93 222 2.0 9.0 0.00 0.00 0.00 30 1014.9
20260507202613 93 325 4.0 8.0 0.00 0.00 0.00 29 1015.0
20260507202113 93 236 3.0 9.0 0.00 0.00 0.00 31 1014.9
20260507201613 93 263 2.0 8.0 0.00 0.00 0.00 32 1014.9
20260507201113 94 309 5.0 10.0 0.00 0.00 0.00 31 1015.0
20260507200613 94 294 4.0 8.0 0.00 0.00 0.00 32 1015.1
20260507200120 94 118 2.0 6.0 0.00 0.00 0.00 39 1015.1
20260507195613 93 316 3.0 9.0 0.00 0.00 0.00 37 1015.1
20260507195113 94 314 2.0 6.0 0.00 0.00 0.00 37 1015.2
20260507194613 94 204 3.0 9.0 0.00 0.00 0.00 38 1015.3
20260507194114 94 38 2.0 3.0 0.00 0.00 0.00 38 1015.4
20260507193613 94 310 3.0 8.0 0.00 0.00 0.00 37 1015.3
20260507193113 94 342 3.0 8.0 0.00 0.00 0.00 37 1015.4
20260507192613 94 314 3.0 9.0 0.00 0.00 0.00 37 1015.5
20260507192114 94 175 2.0 8.0 0.00 0.00 0.00 36 1015.5
20260507191613 94 219 2.0 6.0 0.00 0.00 0.00 37 1015.6
20260507190615 94 314 3.0 12.0 0.00 0.00 0.00 37 1015.8
20260507190120 94 323 3.0 7.0 0.00 0.00 0.00 37 1015.8
20260507185613 94 312 3.0 6.0 0.00 0.00 0.00 35 1015.9
20260507185113 94 279 2.0 8.0 0.00 0.00 0.00 36 1015.9
20260507184613 93 312 2.0 7.0 0.00 0.00 0.00 35 1016.0
20260507184113 93 324 3.0 9.0 0.00 0.00 0.00 36 1016.1
20260507183613 93 315 3.0 10.0 0.00 0.00 0.00 39 1016.1
20260507183114 93 206 1.0 5.0 0.00 0.00 0.00 37 1016.1
20260507182113 93 184 2.0 6.0 0.00 0.00 0.00 34 1016.4
20260507181613 93 187 2.0 6.0 0.00 0.00 0.00 34 1016.5
20260507181113 93 149 2.0 5.0 0.00 0.00 0.00 33 1016.5
20260507180613 93 170 2.0 6.0 0.00 0.00 0.00 34 1016.5
20260507175613 92 148 2.0 6.0 0.00 0.00 0.00 33 1016.6
20260507174613 92 186 4.0 9.0 0.00 0.00 0.00 34 1016.7
20260507174113 92 178 2.0 8.0 0.00 0.00 0.00 37 1016.7
20260507173613 92 163 2.0 6.0 0.00 0.00 0.00 39 1016.8
20260507173113 92 320 3.0 7.0 0.00 0.00 0.00 41 1016.9
20260507172613 92 181 2.0 5.0 0.00 0.00 0.00 42 1016.9
20260507172113 92 285 3.0 13.0 0.00 0.00 0.00 42 1016.9
20260507171113 92 323 1.0 3.0 0.00 0.00 0.00 45 1016.9
20260507170613 91 340 2.0 3.0 0.00 0.00 0.00 47 1016.8
20260507165613 90 181 3.0 9.0 0.00 0.00 0.00 50 1016.8
20260507165113 90 222 2.0 8.0 0.00 0.00 0.00 48 1016.9
20260507164613 90 214 2.0 6.0 0.00 0.00 0.00 51 1016.9
20260507164113 90 139 2.0 7.0 0.00 0.00 0.00 50 1016.9
20260507163113 90 126 3.0 7.0 0.00 0.00 0.00 49 1017.0
20260507162613 90 135 3.0 7.0 0.00 0.00 0.00 48 1017.1
20260507162113 90 255 2.0 5.0 0.00 0.00 0.00 46 1017.1
20260507161613 89 163 2.0 6.0 0.00 0.00 0.00 44 1017.1
20260507161113 89 163 3.0 9.0 0.00 0.00 0.00 44 1017.1
20260507160118 90 166 3.0 7.0 0.00 0.00 0.00 39 1017.3
20260507155614 89 338 1.0 5.0 0.00 0.00 0.00 42 1017.3
20260507155112 88 178 2.0 8.0 0.00 0.00 0.00 44 1017.4
20260507154613 88 170 3.0 7.0 0.00 0.00 0.00 46 1017.5
20260507154113 88 139 3.0 7.0 0.00 0.00 0.00 44 1017.7
20260507153614 88 165 2.0 5.0 0.00 0.00 0.00 45 1017.7
20260507153113 88 223 2.0 7.0 0.00 0.00 0.00 43 1017.7
20260507152112 88 211 3.0 7.0 0.00 0.00 0.00 41 1017.7
20260507151613 88 226 2.0 7.0 0.00 0.00 0.00 41 1017.8
20260507151113 87 198 2.0 3.0 0.00 0.00 0.00 41 1017.8
20260507150613 86 219 2.0 7.0 0.00 0.00 0.00 39 1017.8